Regional Weather Roundup
Issued by NWS Northern Indiana

Home | Current Version | Previous Version | Text Only | Print | Product List | Glossary On
Versions: 1 2 3 4 5 6 7 8 9 10 11 12 13 14 15 16 17 18 19 20 21 22 23 24 25 26 27 28 29 30 31 32 33 34 35 36 37 38 39 40 41 42 43 44 45 46 47 48 49 50
000
ASUS43 KIWX 280910
RWRIWX

KIWX WEATHER ROUNDUP
NATIONAL WEATHER SERVICE NORTHERN INDIANA
500 AM EDT TUE JUL 28 2015

NOTE: "FAIR" INDICATES FEW OR NO CLOUDS BELOW 12,000 FEET WITH NO
SIGNIFICANT WEATHER AND/OR OBSTRUCTIONS TO VISIBILITY.

* THESE STATIONS ARE NOT UNDER NWS QUALITY CONTROL. THEY ALSO MAY NOT
  REPORT WEATHER SUCH AS PRECIPITATION OR FOG.

INZ001>027-281000-
NORTHERN INDIANA

CITY           SKY/WX    TMP DP  RH WIND       PRES   REMARKS
GARY*          CLEAR     65  64  98 CALM      29.99F
VALPARAISO     CLEAR     66  62  87 NE6       30.00F
MICHIGAN CITY* CLEAR     63  63 100 CALM      30.01S
LAPORTE*       CLEAR     65  65 100 CALM      30.01F
KNOX*          MOCLDY    64  63  94 E3        29.99S
SOUTH BEND     CLEAR     67  62  84 E3        30.01F
GOSHEN         CLEAR     63  60  90 CALM      30.02S
MONTICELLO*    MOCLDY    70  66  85 E3        29.98S
LOGANSPORT*    MOCLDY    70  61  73 E6        29.99S
ROCHESTER*     PTCLDY    70  64  83 CALM      30.01R
WARSAW*        CLEAR     64  63  94 CALM      30.02R
ANGOLA*        CLEAR     61  50  67 CALM      30.03S
FORT WAYNE     PTCLDY    67  62  84 NE5       30.02S
HUNTINGTON*    CLOUDY    69  66  88 CALM      30.00S
PERU/GRISSOM   MOCLDY    70  65  85 E3        29.99S
MARION*        CLOUDY    69  64  84 CALM      30.00S

$$
INZ028>050-281000-
CENTRAL INDIANA

CITY           SKY/WX    TMP DP  RH WIND       PRES   REMARKS
LAFAYETTE      PTCLDY    70  67  90 NE6       29.96F
KOKOMO*        MOCLDY    66  63  88 E5        29.99S
MUNCIE*        PTCLDY    69  66  90 CALM      29.99F
INDIANAPOLIS   PTCLDY    75  70  84 NE6       29.97F

$$
MIZ043>046-050>051-056>058-064>065-071>073-077>080-281000-
SOUTHWEST LOWER MICHIGAN

CITY           SKY/WX    TMP DP  RH WIND       PRES   REMARKS
BATTLE CREEK   CLEAR     66  62  87 CALM      30.05R
BENTON HARBOR  CLEAR     62  61  96 E3        30.01S
COLDWATER*     CLEAR     61  61  99 CALM      30.03S
HILLSDALE*     CLEAR     61  61 100 CALM      30.05R
HOLLAND        CLEAR     65  63  93 CALM      30.03S FOG
GRAND RAPIDS   CLEAR     67  64  90 E3        30.03S
KALAMAZOO      CLEAR     64  61  90 CALM      30.04R
STURGIS*       CLEAR     64  61  88 E3        30.02S
THREE RIVERS*  FAIR      62  61  96 CALM      30.03S FOG

$$
OHZ001>008-015>018-024>025-281000-
NORTHWEST OHIO

CITY           SKY/WX    TMP DP  RH WIND       PRES   REMARKS
DEFIANCE       CLEAR     64  60  87 CALM      30.02S
FINDLAY        CLEAR     69  62  78 NE5       30.00S
TOLEDO EXPRESS CLEAR     63  61  93 CALM      30.01F
TOLEDO METCALF CLEAR     68  61  78 CALM      30.01F
LIMA           PTCLDY    66  62  87 E3        30.01S

$$
AND FOR LAKE MICHIGAN COASTAL AND OPEN LAKE BUOY OBSERVATIONS

STATION/POSITION TEMP    WIND        PRES    VSBY  WAVE
                 AIR SEA DIR/SP/G                  HT/PER
                 (F)     (DEG/KT/KT) (MB)    (MI)  (FT/S)
CALUMET HARBOR    73      60/  3/  4   N/A
MICHIGAN CITY     73     110/  6/  8   N/A
BURNS HARBOR      77     130/  9/ 12 1016.3S
SAINT JOSEPH      68      CALM  /  2 1016.9F
4 MI NW BRIDGMAN  71 73  170/  8/  8   N/A           1
MICHIGAN CITY     74 74  150/  6/  8   N/A           1

$$
&&



USA.gov is the U.S. government's official web portal to all federal, state and local government web resources and services.